www.pogodaiklimat.ru

Погода и климат >> Архив погоды >> Пакистан >> Мултан


ПОГОДА в Мултане

  • Прогноз погоды в Мултане
  • Монитор погоды в Мултане

АРХИВ ПОГОДЫ в Мултане

Время (UTC), дата Ветер
(напр.,м/с)
 
Видим.   Явления Облачность Т
(С)
Тd
(С)
f
(%)
Тe
(С)
Тes
(С)
Комфортность P
(гПа)
Po
(гПа)
Тmin
(С)
Tmax
(С)
R
(мм)
R24
(мм)
S
(см)
12 12.08 ЮЗ 7 4000 м пыльный позёмок 3/3 300 м
[Sc diur, vesp]
+36.0 +24.9 53 +49 +50 опасность
перегрева
998.0 983.8 +36.5
15 12.08 ЮЗ 2 4000 м дым 1/0
[Ac trans]
+33.0 +26.1 67 +49 +49 опасность
перегрева
998.2 1000.0
18 12.08 ЮЗ 5 4000 м дым 1/0
[Ac trans]
+31.5 +26.0 73 +47 +47 опасность
перегрева
998.7 984.5
21 12.08 ЮЗ 2 4000 м дым ясно +30.5 +24.1 69 +42 +42 опасность
перегрева
998.9 1000.0
00 13.08 ЮЗ 4 4000 м дым 3/0
[Ac trans]
+29.5 +23.8 71 +40 +40 очень
душно
997.8 983.6
03 13.08 ЮЗ 6 4000 м дым 3/0
[Ac trans]
+30.0 +25.1 75 +43 +45 опасность
перегрева
999.4 985.2 +28.7
06 13.08 ЮЗ 7 4000 м пыльный позёмок 3/3 1200 м
[Cu hum]
+34.0 +24.9 59 +47 +51 опасность
перегрева
1000.5 986.3
09 13.08 ЮЗ 8 4000 м пыльный позёмок 4/4 1200 м
[Cu hum]
+36.0 +24.9 53 +49 +51 опасность
перегрева
1000.0 986.5
12 13.08 ЮЗ 8 4000 м пыльный позёмок 1/1 1200 м
[Cu hum]
+36.5 +24.6 51 +49 +50 опасность
перегрева
997.5 983.4 +37.2
15 13.08 ЮЗ 2 4000 м дым 1/0
[Ac trans]
+33.0 +23.8 59 +45 +45 опасность
перегрева
998.4 1000.0
18 13.08 ЮЗ 7 4000 м пыльный позёмок ясно +31.5 +24.4 66 +44 +44 опасность
перегрева
999.2 985.1
21 13.08 ЮЗ 2 4000 м дым ясно +30.0 +24.3 72 +42 +42 опасность
перегрева
998.6 1000.0
00 14.08 Ю 3 4000 м дым ясно +29.0 +24.8 78 +41 +41 опасность
перегрева
998.2 984.0
03 14.08 ЮЗ 5 4000 м дым 5/0
[Ac trans Ci fib]
+30.0 +25.1 75 +43 +45 опасность
перегрева
1000.6 986.4 +28.7
06 14.08 ЮЗ 5 4000 м дым 5/0
[Ci fib]
+34.5 +23.9 54 +46 +54 опасность
перегрева
1001.6 987.4
09 14.08 ЮЗ 3 4000 м мгла 5/1 1200 м
[Sc Ac As]
+36.5 +23.0 46 +46 +54 опасность
перегрева
1010.1 1000.0
12 14.08 Ю 5 4000 м дым 5/3 1200 м
[Sc diur, vesp Ci fib]
+35.5 +24.3 52 +47 +48 опасность
перегрева
999.5 983.4 +36.8
15 14.08 З 2 4000 м дым 5/0
[Ac trans]
+33.5 +24.4 59 +46 +46 опасность
перегрева
1000.1 1000.0
18 14.08 штиль 0 4000 м дым 3/0
[Ac trans]
+32.5 +25.5 67 +47 +47 опасность
перегрева
1001.9 987.7
21 14.08 штиль 0 4000 м дым ясно +31.5 +26.0 73 +47 +47 опасность
перегрева
1001.2 987.5
00 15.08 штиль 0 4000 м дым 3/0
[Ac trans]
+30.0 +25.8 78 +45 +45 опасность
перегрева
1001.2 987.0
03 15.08 штиль 0 4000 м дым 3/3 1200 м
[Sc]
+31.5 +26.0 73 +47 +52 опасность
перегрева
1002.1 987.9 +29.7
06 15.08 ЮЗ 2 4000 м дым 5/0
[Ac trans Ci fib]
+35.5 +25.1 55 +49 +65 опасность
перегрева
1002.5 988.3
09 15.08 СЗ 3 4000 м мгла 5/5 1200 м
[Sc diur, vesp]
+38.5 +24.6 45 +50 +57 опасность
перегрева
1000.8 987.4
12 15.08 ЮЗ 1 4000 м мгла 6/3 1200 м
[Sc diur, vesp Ci fib]
+38.5 +23.8 43 +49 +52 опасность
перегрева
999.0 984.9 +39.1
15 15.08 штиль 0 4000 м дым 4/0
[Ac trans]
+35.5 +25.1 55 +49 +49 опасность
перегрева
999.0 1000.0
18 15.08 Ю 1 4000 м дым 4/0
[Ac trans]
+34.0 +26.5 65 +51 +51 опасность
перегрева
1000.1 985.9
21 15.08 штиль 0 4000 м дым 3/0
[Ac trans]
+32.5 +26.3 70 +49 +49 опасность
перегрева
999.6 1000.0
00 16.08 ЮВ 2 4000 м дым 3/0
[Ac trans]
+32.0 +26.5 73 +49 +49 опасность
перегрева
999.2 985.1
03 16.08 Ю 2 4000 м дым 3/0
[Ac trans]
+32.0 +25.8 70 +47 +52 опасность
перегрева
999.8 985.8 +31.3
06 16.08 Ю 2 4000 м дым 4/1 300 м
[Sc Ci fib]
+36.0 +26.4 58 +53 +69 опасность
перегрева
1000.5 986.3
09 16.08 штиль 0 4000 м мгла 6/6 1200 м
[Sc diur, vesp]
+38.5 +25.4 48 +53 +65 опасность
перегрева
998.2 1000.0
12 16.08 ЮВ 2 4000 м в посл. час морось {дождь} 5/4 1200 м
[Sc Ac trans]
+37.0 +26.8 56 +54 +56 опасность
перегрева
996.6 982.5 +39.3 1
15 16.08 штиль 0 4000 м зарница 9/1 900 м
[Cb cap Ac trans Ci fib]
+35.5 +26.9 61 +53 +53 опасность
перегрева
997.4 1000.0
18 16.08 ЮВ 1 4000 м дым 9/4 1200 м
[Sc Ac trans]
+30.0 +22.8 65 +40 +40 очень
душно
998.1 983.9
21 16.08 штиль 0 4000 м дым 9/4 1200 м
[Sc As op]
+27.5 +22.4 74 +36 +36 очень
душно
998.8 1000.0
00 17.08 ЮВ 1 4000 м дым 8/3 1200 м
[Sc Ac trans]
+28.5 +22.7 71 +38 +38 очень
душно
998.1 983.9
03 17.08 СЗ 2 4000 м дым 6/0
[Ac trans]
+28.0 +23.7 77 +38 +42 очень
душно
1000.1 985.9 +27.3
06 17.08 С 2 4000 м дым 5/1 1200 м
[Sc Ac As]
+32.5 +24.8 64 +46 +57 опасность
перегрева
1000.7 986.5
09 17.08 С 2 4000 м дым 5/5 1200 м
[Sc diur, vesp]
+36.0 +25.6 55 +51 +60 опасность
перегрева
999.8 1000.0
12 17.08 СВ 4 4000 м дым 5/5 1200 м
[Sc diur, vesp]
+36.0 +24.9 53 +49 +50 опасность
перегрева
997.9 983.7 +36.5
15 17.08 СВ 3 4000 м дым 4/4 300 м
[Sc]
+33.5 +25.1 62 +48 +48 опасность
перегрева
998.8 1000.0
18 17.08 ЮВ 2 4000 м дым 4/4 1200 м
[Sc]
+32.0 +25.8 70 +47 +47 опасность
перегрева
1000.1 985.9
21 17.08 ЮВ 4 4000 м 6/3 1200 м
[Sc Ac trans]
+30.8 +25.8 75 +46 +46 опасность
перегрева
1000.7 987.0
00 18.08 ЮВ 3 4000 м дым 5/3 1200 м
[Sc Ac trans]
+28.5 +25.0 81 +41 +41 опасность
перегрева
1000.7 986.5
03 18.08 ЮВ 3 10 км ясно +29.0 +23.2 71 +39 +43 очень
душно
1002.5 988.3 +27.8
06 18.08 Ю 2 4000 м дым ясно +33.5 +25.1 62 +48 +67 опасность
перегрева
1002.7 988.5
09 18.08 Ю 2 4000 м дым 3/3 1200 м
[Sc diur, vesp]
+37.0 +26.0 53 +52 +65 опасность
перегрева
1001.4 1000.0
12 18.08 ЮЗ 4 4000 м гроза без осадков 9/5 900 м
[Cb calv Ac trans]
+37.0 +25.2 51 +51 +51 опасность
перегрева
1000.2 986.0 +38.2
15 18.08 Ю 2 4000 м в посл. час гроза {дождь} 10/4 1200 м
[Sc Ac As]
+28.5 +21.1 64 +36 +36 очень
душно
1002.8 1000.0 3
18 18.08 ЮЗ 2 4000 м дым {гроза, дождь} 4/0
[Ac As]
+29.0 +24.0 74 +40 +40 очень
душно
1002.2 988.0
21 18.08 СВ 4 1000 м пыльный позёмок 8/4 1200 м
[Sc Ac As]
+26.5 +22.1 77 +34 +34 очень
душно
1004.1 1000.0
00 19.08 ЮВ 3 4000 м дым {гроза} 5/1 1200 м
[Sc Ac As]
+26.0 +21.5 76 +33 +33 очень
душно
1004.0 989.8
03 19.08 СВ 2 10 км ясно +27.0 +22.6 77 +36 +41 очень
душно
1005.5 991.3 +24.2
06 19.08 СВ 2 4000 м дым 3/0
[Ac trans]
+30.0 +21.1 59 +38 +54 опасность
солнечного
удара
1006.9 992.6
09 19.08 СВ 2 4000 м дым 3/3 300 м
[Sc]
+33.5 +21.9 51 +42 +55 опасность
перегрева
1005.5 1000.0

 

Местоположение метеостанции Мултан (Пакистан): широта 30.20 долгота 71.43 высота над уровнем моря 123 м.

В архиве по умолчанию представлена погода в Мултане за последнюю неделю. Архивные данные за месяц целиком и за предыдущие месяцы, начиная с января 2011 года, Вы можете получить, выбрав интересующий диапазон дат из раскрывающегося списка и нажав кнопку "Ввод!".


*Определитесь, кто Вы:
робот инопланетянин человек

Внимание! Время в таблицах - всемирное. Для получения местного времени необходимо прибавить поправку, которая равна 5 ч.

Смотрите также архив погоды в соседних городах и на ближайших метеорологических станциях:

Погода в Ханевале (Пакистан) (47 км)
Погода в Кот Адду (Пакистан) (54 км)
Погода в Дера Гази Хан (Пакистан) (79 км)
Погода в Бахавалпуре (Пакистан) (95 км)
Погода а Бахавалпур аэропорту (Пакистан) (95 км)
Погода на Авиабазе Raifiqui (Пакистан) (98 км)
Погода в Леяхе (Пакистан) (101 км)
Погода в Тоба Тек Сингх (Пакистан) (132 км)
Погода в Джанге (Пакистан) (146 км)
Погода в Сахивале (Пакистан) (161 км)

Пояснения к столбцам:

Ветер - указаны скорость ветра в м/с - средняя за 10 мин, порывы в срок и между сроками (в фигурных скобках) и направление, откуда дует ветер: С - северный, СВ - северо-восточный, В - восточный, ЮВ - юго-восточный, Ю - южный, ЮЗ - юго-западный, З - западный, СЗ - северо-западный.
Видимость - горизонтальная дальность видимости в метрах или километрах. При видимости от 1 до 10 км при отсутствии осадков обычно наблюдается дымка, при ухудшении видимости до 1 км и менее - туман. В сухую погоду видимость может ухудшаться дымом, пылью или мглою.
Явления - указаны атмосферные явления, наблюдавшиеся в срок или в последний час перед сроком; фигурными скобками обозначены явления, наблюдавшиеся между сроками (за 1-3 часа до срока); квадратными скобками обозначены град или гололедные отложения с указанием их диаметра в мм.
Облачность - указаны через наклонную черту общая и нижняя облачность в баллах и высота нижней границы облаков в метрах; квадратными скобками обозначены формы облаков: Ci - перистые, Cs - перисто-слоистые, Cc - перисто-кучевые, Ac - высококучевые, As - высокослоистые, Sc - слоисто-кучевые, Ns - слоисто-дождевые, Cu - кучевые, Cb - кучево-дождевые. Подробнее классификацию облаков см. в Атласе облаков (PDF).
T - Температура воздуха - температура, измеренная на высоте 2 м над землей.
Td - Температура точки росы - температура, при понижении до которой содержащийся в воздухе водяной пар достигнет насыщения.
f - Относительная влажность воздуха - влажноcть воздуха, измеренная на высоте 2 м над землей.
Te - Эффективная температура - температура, которую ощущает одетый по сезону человек в тени. Характеристика душности погоды. При расчете учитывается влияние влажности воздуха и скорости ветра на теплоощущения человека.
Tes - Эффективная температура на солнце - температура, которую ощущает человек, с поправкой на солнечный нагрев. Характеристика знойности погоды. Зависит от высоты солнца над горизонтом, облачности и скорости ветра. Ночью, в пасмурную погоду, а также при ветре 12 м/с и более поправка равна нулю.
P - Атмосферное давление - приведенное к уровню моря атмосферное давление.
Po - Атмосферное давление - измеренное на уровне метеостанции атмосферное давление.
Tmin - Минимальная температура - минимум температуры воздуха на высоте 2 м над землей.
Tmax - Максимальная температура - максимум температуры воздуха на высоте 2 м над землей.
R - Количество осадков - Количество выпавших осадков за период времени, мм. При наведении курсора мыши на число - период времени, за который выпало указанное количество осадков.
R24 - Количество осадков - Количество выпавших осадков за 24 часа, мм.
S - Снежный покров - Высота снежного покрова, см. При наведении курсора мыши на число - состояние снежного покрова и степень покрытия местности в баллах.